SCP
0 0 1 1 0 0 0 0 0 0 0 0 0 0 0 0 0 0 0 0 0 0 0 0 0 0 0 0 0 0 0 0 0 0 1 0 0 0 0 0 0 0 0
0 0 1 1 0 0 0 0 0 0 0 0 0 0 0 0 0 0 0 0 0 0 0 0 0 0 0 0 0 0 0 0 0 0 0 0 0 0 0 0 0 0 0
0 0 0 1 0 0 0 0 0 0 0 0 0 0 0 0 0 0 0 0 0 0 0 0 0 0 0 0 0 0 0 0 0 0 0 0 0 0 0 0 0 0 0
0 0 0 0 0 0 0 0 0 0 0 0 0 0 0 0 0 0 0 0 0 0 0 0 0 0 0 0 0 0 0 0 0 0 0 0 0 0 0 0 0 0 0
0 0 0 1 0 1 0 0 0 0 0 0 0 0 0 0 0 0 0 0 0 0 0 0 0 0 0 0 0 0 0 0 0 0 0 0 0 0 0 0 0 0 0
0 0 0 1 1 1 1 1 1 1 0 0 0 0 0 0 0 0 0 0 0 0 0 0 0 0 0 0 0 0 0 0 0 0 0 0 0 1 1 0 0 0 0
0 0 0 1 1 1 1 1 1 1 1 1 0 0 0 0 1 0 0 0 0 0 0 0 0 0 0 0 0 0 0 0 0 0 0 0 0 1 1 1 0 0 0
0 0 0 1 1 1 1 2 1 1 1 1 1 1 1 1 1 0 0 0 0 0 0 0 0 0 0 0 0 0 0 0 0 0 0 0 0 1 1 1 1 0 0
0 0 0 1 1 2 2 2 2 1 1 2 1 1 1 1 1 1 0 0 0 0 0 0 0 0 0 0 0 0 0 0 0 0 0 0 0 0 1 1 1 0 0
0 0 0 1 1 1 1 2 2 2 2 2 2 1 2 1 1 0 0 0 0 0 0 0 0 0 0 0 0 0 0 0 0 0 0 0 0 0 0 1 1 1 0
0 0 0 0 1 1 1 1 2 1 2 2 1 1 1 1 0 0 0 0 0 0 0 0 0 0 0 0 0 0 0 0 0 0 0 1 0 0 0 1 1 1 0
0 0 0 1 1 1 1 1 2 1 1 1 1 1 1 0 0 0 0 0 0 0 0 0 0 0 0 0 0 0 0 0 0 0 0 0 0 0 0 1 1 0 0
0 0 0 1 1 1 1 1 2 1 1 1 1 1 1 1 0 0 0 0 0 0 0 0 0 0 0 0 0 0 0 0 0 0 0 0 0 0 0 0 1 0 0
0 0 0 0 1 1 1 1 1 1 1 1 1 1 1 1 1 0 0 0 0 0 0 0 0 0 0 0 0 0 0 0 0 0 0 0 0 0 0 0 1 0 0
0 0 0 1 1 2 1 1 1 1 1 0 0 1 1 1 1 0 0 0 0 0 0 0 0 0 0 0 0 0 0 0 0 0 0 0 0 0 0 1 1 0 0
0 0 0 1 1 1 1 1 1 1 1 1 0 1 1 1 1 1 0 0 0 0 0 0 0 0 0 0 0 0 0 0 0 0 0 0 0 0 0 0 1 0 0
0 0 0 1 1 1 1 1 1 1 1 0 0 1 1 1 1 0 0 0 0 0 0 0 0 0 0 0 0 0 0 0 0 0 0 0 0 0 0 0 1 0 0
0 0 0 0 1 1 2 1 1 1 1 0 1 1 1 1 1 1 1 0 0 0 0 0 0 0 0 0 0 0 0 0 0 0 0 0 0 0 0 0 0 0 0
0 0 0 0 0 1 1 1 1 1 1 1 1 1 1 1 0 1 1 1 0 0 0 0 0 0 0 0 0 0 0 0 0 0 0 0 0 0 1 0 0 0 0
0 0 0 0 0 1 1 2 1 1 0 1 1 1 1 1 0 0 1 0 0 0 0 0 0 0 0 0 0 0 0 0 0 0 0 0 0 1 1 1 1 1 0
0 0 0 0 0 1 1 1 1 0 1 1 1 1 0 0 0 1 1 0 0 0 0 0 0 0 0 0 0 0 0 0 0 0 0 1 1 1 1 1 1 1 1
0 0 0 0 0 1 1 1 0 0 1 1 1 1 0 0 0 0 0 0 0 0 0 0 0 0 0 0 0 0 0 0 0 0 0 1 1 1 1 1 0 1 0
0 0 0 0 0 0 0 1 1 1 0 0 0 0 0 0 0 0 0 0 0 0 0 0 0 0 0 0 0 0 0 0 0 0 0 0 1 1 1 1 0 0 0
0 0 0 0 0 0 0 0 0 0 0 0 0 0 0 0 0 0 0 0 0 0 0 0 -0 -0 -0 -0 -0 0 0 0 0 0 0 0 1 1 1 1 0 1 0
0 0 0 0 0 0 0 0 0 0 0 0 0 0 0 0 0 0 0 0 0 0 -0 0 -0 0 0 0 0 0 0 0 0 0 0 0 1 1 1 1 1 1 0
0 0 0 0 0 0 0 0 0 0 0 0 0 0 0 0 0 0 0 0 0 0 0 0 0 0 0 0 0 0 0 0 0 0 0 0 0 1 1 1 0 0 0
Wind_Speed_500mb
30 23 30 32 30 24 20 14 12 9 7 7 8 10 13 15 16 19 21 24 25 22 22 22 21 22 25 25 27 33 32 30 30 25 23 26 27 25 21 19 18 18 18
24 23 24 32 30 27 25 17 16 13 9 7 8 10 13 16 19 20 21 23 24 25 24 24 24 20 19 22 24 27 32 34 34 31 29 26 28 28 26 23 23 29 20
25 24 27 30 29 30 27 19 18 13 8 8 9 11 14 18 21 23 22 22 25 27 27 25 25 25 21 18 22 23 26 31 36 35 33 25 24 30 32 30 25 31 24
25 26 25 30 31 31 26 23 18 14 7 8 11 14 17 19 22 23 22 23 24 25 28 30 26 20 22 21 18 21 21 23 32 36 31 24 26 30 35 34 32 34 30
27 26 24 29 34 30 28 24 21 16 13 11 12 16 20 22 23 23 24 26 26 24 24 24 24 23 22 21 20 20 20 20 24 29 27 28 29 34 34 37 36 36 36
30 26 27 33 37 33 30 26 23 20 17 16 16 20 24 25 23 22 26 29 29 30 30 26 25 24 27 28 26 23 23 24 24 21 26 29 37 34 39 35 39 37 40
33 33 31 34 39 37 34 32 30 27 24 22 22 23 26 27 22 25 32 33 33 34 36 33 31 34 36 34 31 30 29 25 23 23 29 27 27 43 42 39 36 37 40
34 34 35 35 39 39 38 38 38 36 31 29 28 27 28 27 24 30 33 35 33 36 38 39 36 37 39 39 36 36 36 30 23 25 31 28 33 46 44 42 39 36 40
33 38 37 37 41 43 43 44 46 42 38 34 31 31 32 29 28 32 35 34 34 35 38 41 44 46 45 45 41 39 37 37 29 30 31 32 36 39 44 44 41 38 41
40 41 43 43 44 47 49 55 52 46 42 38 36 35 36 35 33 36 37 34 37 37 38 37 38 42 46 47 45 44 41 40 34 34 33 34 45 38 43 46 42 39 40
45 47 47 46 46 49 49 50 54 51 46 44 42 38 37 32 29 31 33 40 41 40 38 37 36 37 37 44 47 49 47 35 34 37 33 38 49 34 42 46 46 39 39
48 50 51 51 49 46 42 42 47 46 42 37 31 29 30 29 31 34 36 46 42 41 40 36 36 34 31 24 32 34 39 37 39 39 34 39 42 34 40 44 45 42 41
44 56 53 59 56 49 44 39 36 35 32 32 34 34 31 31 29 29 28 29 28 31 26 26 25 23 25 30 23 28 27 37 39 39 35 41 43 35 39 44 43 42 45
41 53 54 58 66 61 44 42 38 36 33 31 28 35 36 30 29 28 28 31 33 29 30 27 24 25 27 29 27 31 30 33 37 38 34 41 39 38 39 42 41 42 45
44 44 55 59 63 64 62 41 42 41 37 30 29 30 34 30 28 27 30 31 35 32 31 26 24 26 25 25 27 29 31 33 35 36 30 33 37 38 38 40 40 41 43
44 38 49 63 66 65 63 60 56 50 36 39 26 26 36 32 28 29 31 32 33 33 32 31 23 23 23 24 27 30 30 32 37 34 26 26 31 36 38 40 44 44 46
42 40 52 63 63 64 59 58 53 41 44 27 25 34 36 38 32 33 32 34 37 36 36 34 27 25 24 26 29 28 29 33 30 27 28 23 24 33 39 40 46 50 51
47 47 55 48 60 65 63 59 50 39 37 26 25 26 35 37 34 37 35 38 38 37 36 31 25 25 25 29 23 25 24 24 23 22 21 22 23 25 29 37 44 50 58
47 47 49 43 53 58 59 54 47 43 35 25 24 25 28 31 33 37 36 35 35 33 32 28 24 26 26 28 27 27 22 18 21 19 20 24 24 27 32 30 41 45 56
41 38 34 39 50 55 51 48 38 28 25 23 22 24 28 29 32 35 37 33 30 31 34 26 28 25 24 25 23 22 22 19 19 22 21 20 23 23 26 27 33 39 59
29 25 30 40 51 50 41 37 29 23 21 19 20 25 27 28 34 34 36 30 31 33 27 26 28 27 28 27 28 23 18 22 20 21 17 20 18 18 27 24 29 39 46
16 20 31 40 46 45 35 28 22 20 17 16 18 23 22 24 31 33 31 29 26 28 26 28 29 22 27 33 26 24 19 16 17 19 15 19 22 22 20 21 22 32 46
18 26 34 40 47 41 32 26 21 15 14 13 15 14 16 19 21 24 24 25 24 25 27 28 27 27 28 31 26 15 16 16 26 20 20 17 19 21 22 21 22 33 48
26 33 39 42 46 40 30 20 19 14 13 14 12 14 16 20 19 17 17 18 22 27 26 23 19 24 25 26 25 22 13 15 31 17 21 22 17 18 18 17 20 34 47
37 43 43 45 38 30 26 18 13 13 12 9 10 14 16 21 16 14 12 17 23 22 20 16 20 24 20 23 24 23 16 15 19 22 28 24 22 15 20 15 19 25 34
42 42 42 39 31 26 22 18 16 13 11 8 12 15 12 14 13 11 14 15 14 13 13 17 21 19 17 18 20 19 18 11 16 14 25 29 25 21 17 19 17 13 28
Wind_Direction_500mb
183 193 198 205 206 208 201 216 234 237 270 286 273 274 276 269 255 247 242 244 257 261 261 266 265 256 259 260 247 240 240 237 237 233 227 218 214 211 205 202 201 171 201
174 180 185 199 204 207 206 220 221 232 252 279 287 283 280 268 260 253 246 247 252 262 267 262 266 267 257 259 257 244 239 235 232 230 231 229 219 212 209 206 202 196 208
181 189 184 194 198 205 208 211 212 219 251 277 286 290 288 283 273 268 261 250 250 259 265 263 262 265 267 257 257 257 243 240 235 230 228 233 226 219 214 210 203 204 213
181 186 182 187 194 202 204 206 208 221 244 281 293 300 300 292 282 277 270 271 268 261 264 271 263 265 270 274 262 257 253 242 241 235 228 234 238 234 221 217 213 216 214
188 186 180 184 186 193 199 203 212 220 241 268 294 306 309 299 287 272 273 279 281 277 276 271 269 259 266 273 273 270 251 245 244 239 233 227 232 237 230 224 219 221 215
199 191 190 193 191 194 199 205 214 226 245 268 291 302 309 305 290 266 275 277 275 274 280 277 269 256 257 263 263 267 269 243 246 249 240 233 220 231 233 225 226 221 215
202 198 200 200 198 200 207 213 222 230 243 260 275 290 305 307 284 273 270 275 273 270 266 263 268 252 254 265 266 254 262 260 242 243 245 239 231 228 226 223 223 222 214
205 207 204 208 206 210 216 223 229 234 240 252 263 277 291 297 280 275 276 275 273 269 265 261 258 254 251 252 251 247 249 257 250 242 242 242 234 231 220 222 223 221 213
218 214 212 215 212 217 222 228 233 239 244 253 265 273 284 291 279 271 273 276 277 277 274 262 255 251 252 252 249 249 246 250 241 240 242 245 252 233 220 223 225 221 216
223 221 218 220 218 220 225 229 234 240 246 256 266 274 283 289 278 271 272 282 277 280 280 271 261 253 248 250 250 251 247 246 246 237 235 235 242 235 220 222 225 222 219
236 224 221 221 217 220 221 231 232 237 244 253 262 270 277 273 268 272 273 265 273 283 279 276 270 260 252 250 253 252 248 244 243 245 230 239 248 234 220 219 224 222 223
248 237 224 222 219 213 211 215 232 234 239 247 253 258 270 265 263 258 257 269 277 278 276 281 277 264 251 251 258 254 242 235 236 241 236 241 245 233 224 218 223 223 220
259 242 229 230 220 214 210 213 218 221 230 240 251 261 267 263 265 268 272 273 280 286 276 278 280 279 255 252 250 236 227 233 229 235 236 242 238 231 224 218 221 223 218
267 243 229 224 227 221 212 214 215 218 227 238 253 270 273 264 265 263 262 263 263 264 259 266 266 263 255 247 252 232 224 223 225 228 237 248 232 230 224 217 221 221 217
265 244 228 224 226 224 219 215 215 222 235 240 251 264 267 255 256 260 260 258 256 256 252 252 258 259 258 256 243 240 227 221 219 226 225 250 230 230 224 218 219 219 212
275 245 224 224 229 224 226 227 231 234 231 249 245 251 266 256 254 256 263 262 258 252 252 244 249 247 259 250 247 234 223 221 217 221 226 243 239 230 222 221 216 216 214
273 260 228 235 227 225 224 229 228 232 237 237 245 260 265 264 257 254 258 257 257 254 248 245 239 245 246 248 233 232 214 220 213 216 221 222 244 238 224 224 218 214 210
275 260 244 231 224 224 222 224 221 225 240 238 245 253 265 263 261 257 263 266 265 257 248 239 235 239 243 243 229 224 214 214 217 222 216 216 226 225 243 230 220 215 209
273 246 246 222 216 217 216 213 217 228 237 241 248 253 258 255 257 258 264 269 253 246 239 228 231 239 241 233 223 215 206 206 222 216 214 224 221 218 234 223 221 215 205
262 244 230 214 210 206 203 203 210 218 230 240 248 256 255 259 256 257 266 262 257 237 233 229 236 238 237 229 205 196 191 206 209 208 210 215 219 221 230 222 214 214 206
239 217 201 196 197 185 186 191 200 216 231 238 251 258 256 259 255 258 261 263 251 236 228 233 235 238 233 205 181 184 182 193 198 201 202 213 209 219 217 217 215 212 203
215 192 184 185 188 181 182 183 195 205 223 236 248 257 261 254 254 254 259 252 228 221 226 229 235 228 214 197 185 179 170 179 187 199 197 203 207 206 209 209 205 190 170
177 175 173 176 175 176 179 188 200 211 232 251 263 273 258 249 254 258 253 243 232 216 226 233 234 219 202 195 187 186 185 186 176 195 197 186 196 200 207 206 196 194 175
160 157 159 164 175 186 187 182 185 205 224 233 249 255 251 250 249 259 246 230 211 223 228 232 223 206 198 189 188 199 202 182 183 175 185 181 180 185 196 201 187 181 170
152 150 155 166 173 179 179 173 185 196 223 240 260 275 260 258 252 232 205 205 213 224 224 201 194 192 195 192 188 188 186 181 189 192 171 172 168 171 179 173 171 177 182
147 149 156 164 165 169 170 180 186 199 214 245 275 276 261 261 223 197 200 208 203 193 184 177 177 190 186 195 200 198 182 173 179 173 180 169 166 152 142 150 145 179 208
Wind_Speed_850mb
30 23 30 32 30 24 20 14 12 9 7 7 8 10 13 15 16 19 21 24 25 22 22 22 21 22 25 25 27 33 32 30 30 25 23 26 27 25 21 19 18 18 18
24 23 24 32 30 27 25 17 16 13 9 7 8 10 13 16 19 20 21 23 24 25 24 24 24 20 19 22 24 27 32 34 34 31 29 26 28 28 26 23 23 29 20
25 24 27 30 29 30 27 19 18 13 8 8 9 11 14 18 21 23 22 22 25 27 27 25 25 25 21 18 22 23 26 31 36 35 33 25 24 30 32 30 25 31 24
25 26 25 30 31 31 26 23 18 14 7 8 11 14 17 19 22 23 22 23 24 25 28 30 26 20 22 21 18 21 21 23 32 36 31 24 26 30 35 34 32 34 30
27 26 24 29 34 30 28 24 21 16 13 11 12 16 20 22 23 23 24 26 26 24 24 24 24 23 22 21 20 20 20 20 24 29 27 28 29 34 34 37 36 36 36
30 26 27 33 37 33 30 26 23 20 17 16 16 20 24 25 23 22 26 29 29 30 30 26 25 24 27 28 26 23 23 24 24 21 26 29 37 34 39 35 39 37 40
33 33 31 34 39 37 34 32 30 27 24 22 22 23 26 27 22 25 32 33 33 34 36 33 31 34 36 34 31 30 29 25 23 23 29 27 27 43 42 39 36 37 40
34 34 35 35 39 39 38 38 38 36 31 29 28 27 28 27 24 30 33 35 33 36 38 39 36 37 39 39 36 36 36 30 23 25 31 28 33 46 44 42 39 36 40
33 38 37 37 41 43 43 44 46 42 38 34 31 31 32 29 28 32 35 34 34 35 38 41 44 46 45 45 41 39 37 37 29 30 31 32 36 39 44 44 41 38 41
40 41 43 43 44 47 49 55 52 46 42 38 36 35 36 35 33 36 37 34 37 37 38 37 38 42 46 47 45 44 41 40 34 34 33 34 45 38 43 46 42 39 40
45 47 47 46 46 49 49 50 54 51 46 44 42 38 37 32 29 31 33 40 41 40 38 37 36 37 37 44 47 49 47 35 34 37 33 38 49 34 42 46 46 39 39
48 50 51 51 49 46 42 42 47 46 42 37 31 29 30 29 31 34 36 46 42 41 40 36 36 34 31 24 32 34 39 37 39 39 34 39 42 34 40 44 45 42 41
44 56 53 59 56 49 44 39 36 35 32 32 34 34 31 31 29 29 28 29 28 31 26 26 25 23 25 30 23 28 27 37 39 39 35 41 43 35 39 44 43 42 45
41 53 54 58 66 61 44 42 38 36 33 31 28 35 36 30 29 28 28 31 33 29 30 27 24 25 27 29 27 31 30 33 37 38 34 41 39 38 39 42 41 42 45
44 44 55 59 63 64 62 41 42 41 37 30 29 30 34 30 28 27 30 31 35 32 31 26 24 26 25 25 27 29 31 33 35 36 30 33 37 38 38 40 40 41 43
44 38 49 63 66 65 63 60 56 50 36 39 26 26 36 32 28 29 31 32 33 33 32 31 23 23 23 24 27 30 30 32 37 34 26 26 31 36 38 40 44 44 46
42 40 52 63 63 64 59 58 53 41 44 27 25 34 36 38 32 33 32 34 37 36 36 34 27 25 24 26 29 28 29 33 30 27 28 23 24 33 39 40 46 50 51
47 47 55 48 60 65 63 59 50 39 37 26 25 26 35 37 34 37 35 38 38 37 36 31 25 25 25 29 23 25 24 24 23 22 21 22 23 25 29 37 44 50 58
47 47 49 43 53 58 59 54 47 43 35 25 24 25 28 31 33 37 36 35 35 33 32 28 24 26 26 28 27 27 22 18 21 19 20 24 24 27 32 30 41 45 56
41 38 34 39 50 55 51 48 38 28 25 23 22 24 28 29 32 35 37 33 30 31 34 26 28 25 24 25 23 22 22 19 19 22 21 20 23 23 26 27 33 39 59
29 25 30 40 51 50 41 37 29 23 21 19 20 25 27 28 34 34 36 30 31 33 27 26 28 27 28 27 28 23 18 22 20 21 17 20 18 18 27 24 29 39 46
16 20 31 40 46 45 35 28 22 20 17 16 18 23 22 24 31 33 31 29 26 28 26 28 29 22 27 33 26 24 19 16 17 19 15 19 22 22 20 21 22 32 46
18 26 34 40 47 41 32 26 21 15 14 13 15 14 16 19 21 24 24 25 24 25 27 28 27 27 28 31 26 15 16 16 26 20 20 17 19 21 22 21 22 33 48
26 33 39 42 46 40 30 20 19 14 13 14 12 14 16 20 19 17 17 18 22 27 26 23 19 24 25 26 25 22 13 15 31 17 21 22 17 18 18 17 20 34 47
37 43 43 45 38 30 26 18 13 13 12 9 10 14 16 21 16 14 12 17 23 22 20 16 20 24 20 23 24 23 16 15 19 22 28 24 22 15 20 15 19 25 34
42 42 42 39 31 26 22 18 16 13 11 8 12 15 12 14 13 11 14 15 14 13 13 17 21 19 17 18 20 19 18 11 16 14 25 29 25 21 17 19 17 13 28
Wind_Direction_850mb
183 193 198 205 206 208 201 216 234 237 270 286 273 274 276 269 255 247 242 244 257 261 261 266 265 256 259 260 247 240 240 237 237 233 227 218 214 211 205 202 201 171 201
174 180 185 199 204 207 206 220 221 232 252 279 287 283 280 268 260 253 246 247 252 262 267 262 266 267 257 259 257 244 239 235 232 230 231 229 219 212 209 206 202 196 208
181 189 184 194 198 205 208 211 212 219 251 277 286 290 288 283 273 268 261 250 250 259 265 263 262 265 267 257 257 257 243 240 235 230 228 233 226 219 214 210 203 204 213
181 186 182 187 194 202 204 206 208 221 244 281 293 300 300 292 282 277 270 271 268 261 264 271 263 265 270 274 262 257 253 242 241 235 228 234 238 234 221 217 213 216 214
188 186 180 184 186 193 199 203 212 220 241 268 294 306 309 299 287 272 273 279 281 277 276 271 269 259 266 273 273 270 251 245 244 239 233 227 232 237 230 224 219 221 215
199 191 190 193 191 194 199 205 214 226 245 268 291 302 309 305 290 266 275 277 275 274 280 277 269 256 257 263 263 267 269 243 246 249 240 233 220 231 233 225 226 221 215
202 198 200 200 198 200 207 213 222 230 243 260 275 290 305 307 284 273 270 275 273 270 266 263 268 252 254 265 266 254 262 260 242 243 245 239 231 228 226 223 223 222 214
205 207 204 208 206 210 216 223 229 234 240 252 263 277 291 297 280 275 276 275 273 269 265 261 258 254 251 252 251 247 249 257 250 242 242 242 234 231 220 222 223 221 213
218 214 212 215 212 217 222 228 233 239 244 253 265 273 284 291 279 271 273 276 277 277 274 262 255 251 252 252 249 249 246 250 241 240 242 245 252 233 220 223 225 221 216
223 221 218 220 218 220 225 229 234 240 246 256 266 274 283 289 278 271 272 282 277 280 280 271 261 253 248 250 250 251 247 246 246 237 235 235 242 235 220 222 225 222 219
236 224 221 221 217 220 221 231 232 237 244 253 262 270 277 273 268 272 273 265 273 283 279 276 270 260 252 250 253 252 248 244 243 245 230 239 248 234 220 219 224 222 223
248 237 224 222 219 213 211 215 232 234 239 247 253 258 270 265 263 258 257 269 277 278 276 281 277 264 251 251 258 254 242 235 236 241 236 241 245 233 224 218 223 223 220
259 242 229 230 220 214 210 213 218 221 230 240 251 261 267 263 265 268 272 273 280 286 276 278 280 279 255 252 250 236 227 233 229 235 236 242 238 231 224 218 221 223 218
267 243 229 224 227 221 212 214 215 218 227 238 253 270 273 264 265 263 262 263 263 264 259 266 266 263 255 247 252 232 224 223 225 228 237 248 232 230 224 217 221 221 217
265 244 228 224 226 224 219 215 215 222 235 240 251 264 267 255 256 260 260 258 256 256 252 252 258 259 258 256 243 240 227 221 219 226 225 250 230 230 224 218 219 219 212
275 245 224 224 229 224 226 227 231 234 231 249 245 251 266 256 254 256 263 262 258 252 252 244 249 247 259 250 247 234 223 221 217 221 226 243 239 230 222 221 216 216 214
273 260 228 235 227 225 224 229 228 232 237 237 245 260 265 264 257 254 258 257 257 254 248 245 239 245 246 248 233 232 214 220 213 216 221 222 244 238 224 224 218 214 210
275 260 244 231 224 224 222 224 221 225 240 238 245 253 265 263 261 257 263 266 265 257 248 239 235 239 243 243 229 224 214 214 217 222 216 216 226 225 243 230 220 215 209
273 246 246 222 216 217 216 213 217 228 237 241 248 253 258 255 257 258 264 269 253 246 239 228 231 239 241 233 223 215 206 206 222 216 214 224 221 218 234 223 221 215 205
262 244 230 214 210 206 203 203 210 218 230 240 248 256 255 259 256 257 266 262 257 237 233 229 236 238 237 229 205 196 191 206 209 208 210 215 219 221 230 222 214 214 206
239 217 201 196 197 185 186 191 200 216 231 238 251 258 256 259 255 258 261 263 251 236 228 233 235 238 233 205 181 184 182 193 198 201 202 213 209 219 217 217 215 212 203
215 192 184 185 188 181 182 183 195 205 223 236 248 257 261 254 254 254 259 252 228 221 226 229 235 228 214 197 185 179 170 179 187 199 197 203 207 206 209 209 205 190 170
177 175 173 176 175 176 179 188 200 211 232 251 263 273 258 249 254 258 253 243 232 216 226 233 234 219 202 195 187 186 185 186 176 195 197 186 196 200 207 206 196 194 175
160 157 159 164 175 186 187 182 185 205 224 233 249 255 251 250 249 259 246 230 211 223 228 232 223 206 198 189 188 199 202 182 183 175 185 181 180 185 196 201 187 181 170
152 150 155 166 173 179 179 173 185 196 223 240 260 275 260 258 252 232 205 205 213 224 224 201 194 192 195 192 188 188 186 181 189 192 171 172 168 171 179 173 171 177 182
147 149 156 164 165 169 170 180 186 199 214 245 275 276 261 261 223 197 200 208 203 193 184 177 177 190 186 195 200 198 182 173 179 173 180 169 166 152 142 150 145 179 208